Location: ???? ????
(31.2831°N, 45.5190°E)
Time: 08:42:42
(UTC+00:00)

CZ-4 R/B - Pass Details

Date: 24 February 2021
Orbit: 579 x 589 km, 97.7° (Epoch: 15 April)

Event Time Altitude Azimuth Distance (km) Brightness Sun altitude
Rises 15:18:10 0° 162° (SSE) 2,803 7.8 -6.3°
Reaches altitude 10° 15:20:19 10° 160° (SSE) 1,907 6.9 -6.7°
Maximum altitude 15:24:26 69° 77° (ENE) 630 4.4 -7.6°
Drops below altitude 10° 15:28:35 10° 354° (N) 1,919 7.1 -8.5°
Sets 15:30:45 0° 352° (N) 2,823 8.0 -8.9°
